Wind_Speed
13 12 10 9 8 7 6 6 5 4 4 5 6 6 7 8 6 6 6 6 5 6 6 5 4 5 6 6 6 6 7 7 6 6 6 7 6 6 6 5 4 4 4 4
15 13 12 12 11 10 9 8 7 6 6 7 8 8 7 6 6 6 5 6 6 5 5 5 3 3 4 4 4 5 5 5 6 6 6 6 6 6 6 6 4 3 4 4
16 13 14 13 12 11 10 10 9 8 8 10 10 9 8 6 7 6 5 6 7 6 6 6 6 6 4 2 2 3 4 5 5 5 5 5 5 5 5 5 4 4 4 4
16 15 15 14 14 13 12 12 11 10 9 11 11 11 9 7 8 7 7 7 7 7 7 6 6 6 5 4 3 3 4 4 4 5 5 5 5 5 5 5 5 5 5 6
16 16 16 16 15 15 12 13 14 12 11 13 13 12 9 10 10 8 9 9 8 8 8 7 6 6 5 6 5 4 4 4 4 5 5 5 6 6 6 5 6 6 7 6
16 17 17 16 16 15 13 14 15 14 13 14 13 15 12 12 11 10 10 9 9 9 9 9 9 7 6 7 6 6 6 6 5 5 5 6 6 6 6 6 6 6 7 7
18 18 18 17 16 15 14 15 16 16 16 15 13 15 14 12 12 11 10 9 9 10 10 10 9 8 8 9 8 8 7 7 7 6 7 6 6 6 7 7 7 7 8 8
18 19 18 18 16 14 15 17 18 18 18 16 16 17 16 15 14 13 11 10 10 11 11 10 10 9 9 10 9 9 8 8 8 8 7 7 7 7 8 8 9 9 9 10
19 19 19 18 16 16 17 17 18 20 20 20 19 18 16 16 17 17 14 12 11 12 11 11 11 10 9 10 11 11 9 10 11 9 8 8 8 8 8 9 9 10 11 11
20 21 20 19 18 19 18 17 18 20 22 22 21 19 18 17 17 16 15 13 13 14 14 14 13 11 10 11 12 12 11 11 11 11 10 10 10 10 10 10 10 11 12 12
21 22 21 20 21 21 21 20 21 23 23 24 23 21 19 19 18 17 17 16 16 17 17 16 15 13 13 13 14 14 13 12 12 12 12 12 12 11 11 11 11 12 13 13
22 23 22 22 21 22 22 23 24 25 25 25 25 24 20 20 20 20 19 18 17 18 17 17 16 15 15 15 14 14 14 13 13 13 13 12 12 13 13 13 14 13 13 13
24 25 24 23 23 24 24 24 24 25 27 27 26 24 21 20 20 20 18 18 18 17 16 16 16 16 15 16 16 15 15 14 14 14 13 13 13 14 14 15 15 14 14 14
28 28 27 26 25 25 26 26 26 27 28 28 27 25 23 21 20 19 19 18 18 18 16 16 16 16 15 16 16 16 15 15 15 15 15 14 15 15 15 15 15 15 15 14
30 30 30 29 28 27 27 27 27 28 28 28 27 26 24 23 22 20 19 18 19 19 18 18 17 17 17 17 16 17 16 17 17 17 17 17 16 16 17 16 16 16 15 15
31 32 32 32 30 29 28 27 27 28 28 28 27 27 25 24 24 23 22 22 22 22 21 20 20 19 19 19 18 18 18 19 19 18 18 18 18 18 18 18 17 17 17 17
33 32 33 33 32 31 31 31 30 29 28 28 27 25 25 25 25 27 26 24 24 22 22 23 22 19 20 20 19 19 20 21 20 19 19 19 19 19 20 19 18 18 18 18
32 32 32 33 33 34 32 31 30 30 30 29 29 27 26 26 25 26 27 25 24 25 24 23 23 21 20 20 21 21 21 21 20 19 19 19 20 21 21 20 20 19 19 19
33 32 33 33 34 35 33 31 29 29 29 30 30 29 27 26 26 27 27 27 27 26 25 23 22 22 21 21 21 22 23 22 22 21 21 22 22 22 22 21 21 21 21 20
33 33 33 34 34 34 33 31 30 30 30 29 30 29 29 29 29 28 28 29 29 28 27 25 23 22 22 21 21 22 23 22 22 22 22 22 23 23 23 23 22 21 22 21
32 33 33 34 34 34 34 32 31 31 31 30 30 31 30 31 30 29 30 29 28 27 26 25 24 23 23 21 21 22 22 22 22 22 23 23 24 24 24 24 23 23 23 23
33 34 33 33 34 35 34 34 34 33 33 32 32 32 32 32 31 30 29 29 28 28 26 25 25 25 24 24 23 24 23 23 22 22 23 24 24 24 24 23 24 24 24 23
33 34 33 33 34 34 35 35 35 35 35 34 34 34 34 34 33 32 32 31 30 29 28 28 27 27 26 26 25 24 24 23 23 23 24 24 25 25 24 24 24 24 24 24
32 34 34 34 35 35 35 36 36 36 36 35 35 35 35 35 34 34 34 34 32 30 30 30 29 29 28 27 26 25 25 24 23 24 24 25 26 26 26 25 25 25 26 26
32 34 34 35 35 35 35 35 36 37 37 37 36 36 37 37 36 35 35 34 33 32 32 32 31 31 30 29 29 28 27 26 26 26 26 26 26 26 26 26 26 26 26 27
31 34 34 34 35 36 36 36 37 38 39 38 37 37 37 37 37 36 36 35 34 34 33 33 33 32 31 31 31 31 30 29 28 28 29 28 28 28 28 28 27 26 27 27
Wind_Direction
214 212 211 218 222 222 227 237 233 247 263 276 298 315 325 334 334 349 342 344 354 359 2 8 28 41 43 42 45 42 41 42 40 35 32 34 40 42 39 38 39 40 35 31
217 213 214 221 226 232 234 242 241 253 252 267 287 298 309 308 320 332 336 331 336 344 341 339 344 358 16 32 36 31 28 29 30 29 27 28 32 31 29 27 21 15 12 10
226 224 222 220 227 235 239 248 249 254 259 270 280 288 293 286 296 309 318 319 321 328 328 330 331 331 332 347 5 7 5 10 14 14 12 14 17 15 14 13 12 5 354 353
228 227 228 226 228 237 242 248 242 244 247 257 267 274 275 277 294 300 307 311 311 317 314 313 320 327 321 306 314 330 342 347 352 356 354 354 355 354 354 354 354 350 342 340
227 229 233 232 233 236 245 248 247 246 252 255 260 271 268 264 278 286 298 301 299 302 301 298 301 310 309 301 291 296 305 313 326 333 338 337 334 333 335 333 335 339 334 330
231 233 235 234 234 234 241 250 253 249 254 258 255 266 273 267 265 279 288 287 289 288 286 285 289 293 292 292 282 288 292 294 305 313 318 322 323 322 322 322 325 326 328 327
232 232 233 233 236 234 240 248 253 250 253 259 261 268 276 271 269 276 286 283 280 282 281 280 281 285 291 291 282 285 288 290 295 299 303 307 310 312 314 315 317 316 316 319
239 233 234 235 239 238 241 247 253 254 256 257 261 267 273 273 270 276 278 279 280 280 278 278 280 280 284 283 281 286 288 290 292 292 292 297 300 301 301 304 304 304 304 307
241 238 234 234 239 243 242 247 252 255 257 260 263 267 270 272 271 269 270 271 273 280 273 278 276 276 277 283 287 288 289 291 289 287 285 287 292 294 293 294 296 298 300 301
242 242 234 235 238 241 245 249 252 255 258 261 263 266 270 268 271 270 273 267 270 274 276 277 278 272 275 281 282 284 288 291 287 282 281 284 288 288 288 291 294 295 297 298
242 244 236 234 238 241 243 245 250 255 258 262 266 267 270 271 271 270 274 273 273 271 271 278 277 276 278 281 283 282 283 286 283 281 281 281 284 285 290 293 293 295 297 296
238 242 240 236 238 241 244 244 246 251 255 259 264 267 269 269 270 270 272 272 273 272 270 269 272 275 276 279 280 280 281 282 280 279 279 279 287 290 291 292 296 296 296 296
234 239 242 238 235 238 242 245 246 251 255 258 261 266 267 270 272 269 270 274 275 276 271 267 265 272 274 275 276 276 276 277 278 277 280 280 282 285 288 292 293 295 296 297
237 240 243 241 237 238 239 242 245 249 252 257 260 262 266 269 273 272 269 272 274 275 275 267 266 272 277 275 274 272 273 274 275 276 277 279 282 283 285 289 292 295 295 294
242 241 241 241 241 240 240 240 244 249 252 257 259 261 267 268 271 272 272 277 279 279 278 276 272 271 275 277 276 271 271 271 270 271 271 273 278 282 286 287 289 291 293 292
241 240 240 241 242 242 241 240 243 248 254 258 260 261 263 268 265 268 272 273 276 281 280 279 278 275 277 278 277 273 273 274 270 269 269 270 275 279 283 284 284 286 287 286
242 242 241 242 243 246 244 242 244 248 252 256 257 260 258 262 266 265 268 271 273 277 280 280 276 275 279 277 273 271 271 270 270 268 270 269 271 277 280 280 280 282 283 283
244 243 244 244 243 245 245 245 248 248 251 253 255 258 259 260 261 262 265 267 271 273 276 278 278 277 279 274 271 269 272 267 263 266 270 271 275 279 280 280 279 278 279 281
246 246 247 247 246 245 243 245 249 248 250 252 254 254 256 258 260 263 266 268 271 273 275 276 277 277 277 275 273 269 267 265 264 266 270 274 277 278 279 280 278 278 278 280
247 245 245 246 247 247 245 243 248 250 250 252 254 254 256 259 260 261 265 268 271 270 272 275 278 276 275 276 272 267 267 265 264 267 270 272 274 276 276 277 277 277 277 279
246 245 245 246 247 247 246 244 246 248 250 251 253 255 256 259 262 262 262 265 269 270 270 272 275 278 277 275 270 269 269 269 268 269 270 272 274 276 276 275 275 274 276 278
248 247 245 245 246 246 247 247 247 249 250 251 253 255 257 261 264 264 265 266 268 267 268 270 272 274 274 272 269 267 269 273 271 268 269 272 275 276 276 276 276 275 275 276
248 247 247 246 247 247 248 249 249 250 252 253 255 255 258 261 262 263 264 266 268 265 266 269 270 270 269 269 269 268 268 269 269 267 268 270 273 274 275 274 275 275 276 278
246 246 246 246 246 247 248 249 251 253 254 256 256 256 257 259 260 261 263 264 265 266 265 267 267 266 266 266 267 267 266 268 267 266 268 269 271 273 274 273 273 274 276 278
249 248 248 247 248 248 248 250 252 254 256 256 256 258 258 259 260 261 261 263 264 265 265 265 265 265 266 267 267 266 265 266 266 266 268 270 271 271 272 271 272 273 275 278
250 251 251 249 248 249 249 251 254 256 256 256 257 258 259 259 260 260 260 259 261 261 262 264 265 265 266 267 267 267 267 267 265 266 266 268 269 271 272 271 272 273 274 277
Height
5918 5921 5921 5923 5923 5924 5925 5925 5925 5926 5925 5925 5924 5925 5925 5925 5924 5924 5923 5922 5922 5922 5921 5921 5919 5918 5918 5917 5917 5917 5916 5915 5914 5913 5912 5911 5911 5910 5909 5909 5908 5908 5907 5907
5917 5918 5920 5920 5921 5922 5922 5923 5924 5924 5924 5923 5923 5923 5923 5923 5922 5922 5922 5921 5921 5921 5920 5920 5919 5918 5917 5917 5917 5917 5916 5916 5914 5913 5912 5912 5911 5910 5909 5909 5908 5907 5907 5906
5914 5917 5916 5917 5918 5919 5920 5921 5922 5922 5922 5921 5922 5922 5921 5921 5921 5920 5919 5919 5920 5919 5919 5919 5918 5918 5917 5917 5916 5916 5916 5915 5914 5913 5912 5911 5910 5910 5909 5908 5908 5907 5906 5906
5910 5912 5912 5913 5915 5916 5917 5918 5919 5919 5919 5919 5920 5919 5919 5919 5919 5919 5918 5918 5918 5918 5918 5918 5918 5917 5917 5916 5916 5915 5915 5914 5913 5912 5911 5911 5910 5909 5908 5908 5907 5906 5906 5905
5906 5908 5909 5910 5912 5913 5915 5916 5916 5916 5916 5916 5917 5917 5917 5917 5917 5917 5917 5916 5915 5916 5916 5916 5916 5916 5915 5915 5914 5914 5913 5913 5912 5911 5910 5909 5909 5908 5907 5906 5906 5905 5904 5903
5903 5904 5905 5907 5908 5910 5911 5913 5913 5913 5913 5913 5914 5914 5914 5913 5914 5914 5914 5913 5913 5913 5913 5913 5913 5913 5913 5913 5912 5912 5911 5911 5910 5910 5909 5908 5907 5906 5906 5905 5904 5903 5902 5901
5898 5899 5901 5903 5904 5906 5907 5909 5909 5909 5909 5909 5911 5910 5911 5910 5910 5911 5911 5910 5910 5910 5911 5911 5910 5910 5910 5910 5909 5909 5909 5908 5908 5908 5907 5906 5906 5905 5904 5903 5902 5901 5900 5899
5893 5896 5897 5899 5900 5902 5903 5904 5905 5905 5905 5906 5906 5906 5907 5907 5907 5907 5907 5907 5907 5907 5907 5907 5907 5907 5908 5907 5906 5906 5906 5906 5905 5905 5905 5904 5904 5903 5902 5901 5900 5899 5898 5897
5888 5891 5893 5894 5896 5897 5898 5899 5900 5901 5901 5901 5901 5902 5903 5902 5903 5903 5903 5903 5904 5904 5904 5904 5904 5904 5904 5904 5903 5903 5903 5903 5902 5902 5902 5901 5900 5900 5899 5898 5897 5896 5895 5893
5883 5885 5888 5890 5891 5892 5894 5895 5896 5896 5896 5895 5896 5897 5898 5898 5897 5898 5899 5899 5900 5901 5900 5900 5900 5900 5901 5901 5901 5900 5900 5899 5899 5898 5898 5898 5897 5896 5896 5895 5894 5892 5891 5890
5877 5879 5882 5884 5885 5887 5888 5890 5890 5891 5891 5891 5890 5894 5894 5894 5894 5894 5894 5895 5895 5896 5895 5896 5896 5896 5897 5897 5897 5896 5896 5895 5895 5895 5894 5894 5893 5893 5892 5890 5889 5888 5887 5886
5871 5873 5875 5878 5880 5881 5882 5883 5884 5885 5885 5886 5886 5890 5888 5889 5889 5889 5890 5890 5891 5890 5890 5891 5892 5892 5892 5892 5892 5892 5892 5891 5891 5891 5889 5889 5889 5888 5888 5887 5885 5884 5883 5882
5865 5867 5869 5872 5876 5876 5876 5877 5878 5879 5880 5880 5880 5884 5883 5883 5884 5884 5884 5885 5885 5885 5885 5886 5886 5887 5887 5888 5888 5888 5888 5887 5887 5886 5886 5885 5885 5884 5883 5882 5881 5880 5879 5878
5859 5861 5863 5866 5867 5868 5869 5871 5872 5873 5873 5874 5875 5877 5878 5878 5878 5878 5879 5879 5880 5880 5881 5881 5881 5882 5882 5882 5882 5882 5883 5883 5882 5882 5881 5881 5880 5879 5879 5878 5877 5875 5874 5873
5852 5855 5856 5858 5860 5861 5863 5864 5866 5867 5867 5868 5870 5871 5872 5872 5873 5873 5874 5874 5875 5875 5876 5876 5876 5877 5877 5877 5877 5877 5877 5877 5877 5877 5877 5876 5876 5875 5874 5873 5872 5871 5870 5868
5845 5847 5849 5851 5854 5855 5856 5858 5859 5860 5861 5862 5863 5865 5866 5866 5867 5868 5869 5869 5870 5870 5870 5871 5872 5872 5872 5871 5872 5872 5871 5872 5872 5872 5871 5871 5870 5870 5869 5868 5867 5866 5865 5863
5837 5839 5842 5844 5846 5848 5850 5852 5853 5854 5855 5856 5857 5859 5859 5860 5861 5862 5863 5864 5865 5865 5865 5865 5866 5867 5867 5867 5867 5866 5866 5866 5866 5865 5865 5865 5865 5864 5863 5862 5861 5860 5859 5858
5830 5832 5833 5835 5839 5840 5845 5845 5846 5847 5847 5848 5850 5852 5853 5854 5855 5856 5857 5858 5859 5859 5859 5860 5860 5860 5861 5860 5860 5860 5860 5859 5859 5859 5859 5859 5859 5858 5857 5856 5856 5855 5853 5852
5821 5823 5825 5827 5829 5831 5835 5837 5838 5839 5840 5841 5843 5844 5845 5847 5848 5849 5849 5851 5852 5852 5853 5853 5853 5853 5854 5854 5854 5854 5854 5853 5853 5853 5853 5853 5853 5852 5851 5850 5849 5848 5847 5846
5812 5814 5817 5818 5820 5822 5827 5829 5830 5832 5832 5834 5835 5836 5838 5839 5841 5842 5843 5843 5844 5845 5845 5845 5846 5846 5846 5847 5847 5847 5847 5847 5847 5846 5846 5846 5846 5845 5845 5844 5843 5842 5841 5840
5804 5805 5807 5809 5810 5813 5817 5820 5822 5824 5825 5826 5827 5828 5830 5831 5833 5834 5835 5836 5836 5837 5837 5838 5838 5838 5839 5840 5840 5841 5841 5841 5841 5841 5840 5840 5839 5839 5838 5837 5836 5835 5834 5834
5794 5796 5798 5800 5802 5806 5807 5810 5812 5814 5816 5817 5819 5820 5821 5822 5823 5824 5826 5827 5829 5829 5830 5830 5830 5831 5832 5832 5833 5833 5833 5834 5833 5833 5833 5833 5832 5831 5831 5830 5829 5828 5827 5827
5785 5787 5789 5792 5795 5796 5798 5800 5802 5804 5806 5808 5810 5812 5813 5814 5815 5816 5817 5819 5821 5821 5822 5822 5823 5824 5824 5825 5825 5826 5826 5826 5826 5826 5826 5826 5825 5824 5823 5823 5822 5821 5820 5819
5776 5777 5780 5782 5784 5786 5788 5790 5793 5795 5797 5799 5801 5803 5804 5806 5807 5808 5809 5810 5812 5813 5813 5814 5815 5815 5816 5816 5817 5818 5818 5818 5818 5818 5818 5818 5817 5816 5816 5815 5814 5814 5813 5812
5767 5769 5770 5772 5775 5777 5779 5781 5783 5785 5787 5789 5791 5793 5794 5796 5798 5799 5800 5801 5803 5804 5804 5805 5806 5807 5807 5808 5809 5809 5809 5809 5810 5810 5810 5810 5809 5809 5808 5807 5807 5806 5805 5805
5758 5759 5761 5763 5765 5767 5769 5771 5773 5775 5776 5778 5780 5782 5784 5785 5787 5789 5790 5791 5793 5794 5795 5796 5797 5798 5798 5799 5799 5800 5800 5800 5801 5801 5801 5801 5800 5800 5800 5800 5799 5798 5797 5796